Wheeler AAF, HI

11:57 PM HST on January 19, 2018 (GMT -1000)
Wheeler Army Air Field

Weather History for PHHI - September, 2013

Change the Weather History Date:

Sunday, September 8, 2013

  Actual Average Record
Temperature  
Mean Temperature 76 °F -  
Max Temperature 84 °F 82 °F 87 °F (2004)
Min Temperature 67 °F 68 °F 64 °F (2011)
Cooling Degree Days 10    
Growing Degree Days 26 (Base 50)    
Moisture  
Dew Point 66 °F    
Average Humidity 70    
Maximum Humidity 89    
Minimum Humidity 51    
Precipitation  
Precipitation 0.00 in - - ()
Sea Level Pressure  
Sea Level Pressure 30.06 in    
Wind  
Wind Speed 6 mph (ENE)    
Max Wind Speed 18 mph    
Max Gust Speed 24 mph    
Visibility 10 miles    
Events      
Averages and records for this station are not official NWS values.
T = Trace of Precipitation, MM = Missing Value Source: NWS Daily Summary

Daily Weather History Graph

Daily Weather History Graph

Search for Another Location

Airport or City:

Trip Planner

Search our weather history database for the weather conditions in past years. The results will help you decide how hot, cold, wet, or windy it might be!

Date:

Astronomy

Sep. 08, 2013 Rise Set
Actual Time 6:17 AM HST 6:41 PM HST
Civil Twilight 5:55 AM HST 7:03 PM HST
Nautical Twilight 5:28 AM HST 7:29 PM HST
Astronomical Twilight 5:02 AM HST 7:56 PM HST
Moon 9:15 AM HST (9/8) 8:59 PM HST (9/8)
Length of Visible Light 13h 08m
Length of Day
12h 23m
Waxing Crescent, 13% of the Moon is Illuminated
Sep 8
Waxing Crescent
Sep 12
First Quarter
Sep 19
Full
Sep 26
Last Quarter
Oct 4
New

Hourly Weather History & Observations

Time (HST) Temp. Heat Index Dew Point Humidity Pressure Visibility Wind Dir Wind Speed Gust Speed Precip Events Conditions
12:33 AM 71.6 °F - 66.2 °F 83% 30.06 in 10.0 mi Variable 1.2 mph - N/A   Mostly Cloudy
12:38 AM 71.6 °F - 66.2 °F 83% 30.06 in 10.0 mi Calm Calm - N/A   Mostly Cloudy
12:48 AM 71.6 °F - 66.2 °F 83% 30.06 in 10.0 mi Calm Calm - N/A   Mostly Cloudy
12:58 AM 71.1 °F - 66.6 °F 86% 30.06 in 10.0 mi ENE 3.5 mph - N/A   Mostly Cloudy
1:58 AM 69.4 °F - 65.8 °F 88% 30.04 in 10.0 mi NNW 3.5 mph - N/A   Clear
2:58 AM 70.3 °F - 66.7 °F 88% 30.03 in 10.0 mi Variable 3.5 mph - N/A   Clear
3:58 AM 73.4 °F - 66.2 °F 78% 30.02 in 10.0 mi WNW 4.6 mph - N/A   Clear
4:58 AM 69.6 °F - 64.8 °F 84% 30.03 in 10.0 mi West 4.6 mph - N/A   Clear
5:58 AM 67.8 °F - 64.4 °F 89% 30.04 in 10.0 mi NW 1.2 mph - N/A   Clear
6:58 AM 69.1 °F - 65.1 °F 87% 30.05 in 10.0 mi WNW 5.8 mph - N/A   Clear
7:58 AM 73.9 °F - 68.0 °F 82% 30.06 in 10.0 mi Calm Calm - N/A   Clear
8:58 AM 79.3 °F - 67.6 °F 67% 30.07 in 10.0 mi East 10.4 mph - N/A   Clear
9:58 AM 81.7 °F 83.6 °F 65.5 °F 58% 30.08 in 10.0 mi ESE 10.4 mph 16.1 mph N/A   Clear
10:58 AM 82.8 °F 84.5 °F 65.1 °F 55% 30.08 in 10.0 mi East 11.5 mph 20.7 mph N/A   Partly Cloudy
11:58 AM 83.7 °F 85.3 °F 64.9 °F 53% 30.06 in 10.0 mi East 15.0 mph 20.7 mph N/A   Clear
12:11 PM 84.2 °F 85.6 °F 64.4 °F 51% 30.06 in 10.0 mi East 13.8 mph - N/A   Clear
12:38 PM 84.2 °F 85.6 °F 64.4 °F 51% 30.06 in 10.0 mi ENE 18.4 mph 24.2 mph N/A   Clear
12:58 PM 84.2 °F 85.8 °F 64.6 °F 52% 30.05 in 10.0 mi ENE 15.0 mph 20.7 mph N/A   Clear
1:58 PM 84.4 °F 86.1 °F 64.8 °F 52% 30.03 in 10.0 mi ENE 17.3 mph 21.9 mph N/A   Partly Cloudy
2:07 PM 84.2 °F 85.6 °F 64.4 °F 51% 30.04 in 10.0 mi ESE 13.8 mph 20.7 mph N/A   Partly Cloudy
2:58 PM 84.4 °F 85.9 °F 64.2 °F 51% 30.03 in 10.0 mi ENE 16.1 mph 20.7 mph N/A   Partly Cloudy
3:09 PM 84.2 °F 85.6 °F 64.4 °F 51% 30.02 in 10.0 mi ESE 12.7 mph 21.9 mph N/A   Clear
3:58 PM 83.5 °F 85.3 °F 65.3 °F 54% 30.02 in 10.0 mi East 8.1 mph 20.7 mph N/A   Clear
4:58 PM 81.3 °F 83.5 °F 66.4 °F 60% 30.03 in 10.0 mi East 10.4 mph - N/A   Clear
5:58 PM 79.7 °F - 66.4 °F 64% 30.04 in 10.0 mi ENE 11.5 mph - N/A   Clear
6:58 PM 77.0 °F - 66.0 °F 69% 30.06 in 10.0 mi East 6.9 mph - N/A   Clear
7:58 PM 76.3 °F - 66.4 °F 71% 30.07 in 10.0 mi East 6.9 mph - N/A   Clear
8:58 PM 75.4 °F - 66.4 °F 73% 30.09 in 10.0 mi East 3.5 mph - N/A   Clear
9:51 PM 73.4 °F - 66.2 °F 78% 30.10 in 10.0 mi ENE 4.6 mph - N/A   Light Drizzle
9:58 PM 74.3 °F - 66.7 °F 77% 30.10 in 10.0 mi ENE 2.3 mph - 0.00 in   Light Drizzle
10:00 PM 75.2 °F - 66.2 °F 73% 30.10 in 10.0 mi ENE 3.5 mph - N/A   Mostly Cloudy
10:58 PM 70.9 °F - 65.8 °F 84% 30.10 in 10.0 mi West 3.5 mph - 0.00 in   Partly Cloudy
11:58 PM 71.4 °F - 65.5 °F 81% 30.09 in 10.0 mi NW 1.2 mph - N/A   Clear